OMA685 OOMS-OERK

Flight info

Callsign OMA685
Flight time 1h 58m
Altitude 40000
Route MCT T506 TULBU G652 TOKRA DCT MEDPO DCT BOSOB DCT SITUK M321 NAGUB
Aircraft A333/H-SDE3GHIJ2J3J5M1RVWXY/LB2D1

Departure

Time 2026-05-01 12:16
Airport Muscat International Airport (OOMS)

Arrival

Time 2026-05-01 14:14
Airport King Khalid International Airport (OERK)
Time Latitude Longitude Altitude Speed Heading
2026-05-01 11:41 23.60339 58.28575 45 ft 0 kts 85°
2026-05-01 12:05 23.60339 58.28563 47 ft 2 kts 85°
2026-05-01 12:05 23.60336 58.28530 49 ft 2 kts 85°
2026-05-01 12:05 23.60335 58.28514 49 ft 2 kts 85°
2026-05-01 12:06 23.60333 58.28497 48 ft 2 kts 85°
2026-05-01 12:06 23.60332 58.28481 47 ft 2 kts 85°
2026-05-01 12:06 23.60331 58.28465 46 ft 1 kts 75°
2026-05-01 12:06 23.60324 58.28455 45 ft 1 kts 15°
2026-05-01 12:07 23.60311 58.28455 45 ft 2 kts 356°
2026-05-01 12:07 23.60296 58.28452 45 ft 2 kts 28°
2026-05-01 12:07 23.60284 58.28444 45 ft 2 kts 47°
2026-05-01 12:07 23.60275 58.28431 45 ft 2 kts 57°
2026-05-01 12:08 23.60267 58.28418 45 ft 1 kts 59°
2026-05-01 12:08 23.60265 58.28406 45 ft 1 kts 111°
2026-05-01 12:08 23.60269 58.28399 45 ft 1 kts 94°
2026-05-01 12:08 23.60269 58.28394 45 ft 0 kts 85°
2026-05-01 12:11 23.60392 58.28448 45 ft 13 kts 355°
2026-05-01 12:11 23.60461 58.28442 45 ft 3 kts 354°
2026-05-01 12:11 23.60507 58.28442 45 ft 9 kts 14°
2026-05-01 12:12 23.60547 58.28510 45 ft 11 kts 82°
2026-05-01 12:12 23.60555 58.28604 45 ft 14 kts 85°
2026-05-01 12:12 23.60566 58.28727 45 ft 17 kts 85°
2026-05-01 12:12 23.60576 58.28857 45 ft 17 kts 85°
2026-05-01 12:13 23.60586 58.28987 45 ft 17 kts 85°
2026-05-01 12:13 23.60597 58.29118 45 ft 17 kts 85°
2026-05-01 12:13 23.60607 58.29251 45 ft 17 kts 84°
2026-05-01 12:13 23.60618 58.29384 45 ft 17 kts 86°
2026-05-01 12:14 23.60628 58.29517 45 ft 17 kts 86°
2026-05-01 12:14 23.60653 58.29602 45 ft 10 kts 39°
2026-05-01 12:14 23.60723 58.29609 45 ft 10 kts 355°
2026-05-01 12:14 23.60817 58.29599 45 ft 16 kts 354°
2026-05-01 12:15 23.60890 58.29507 44 ft 20 kts 269°
2026-05-01 12:15 23.60866 58.29223 45 ft 69 kts 265°
2026-05-01 12:15 23.60802 58.28426 45 ft 138 kts 265°
2026-05-01 12:15 23.60680 58.27199 179 ft 178 kts 261°
2026-05-01 12:16 23.60474 58.25888 823 ft 182 kts 258°
2026-05-01 12:16 23.60180 58.24514 1495 ft 190 kts 262°
2026-05-01 12:16 23.60037 58.23106 2205 ft 193 kts 271°
2026-05-01 12:16 23.59937 58.21618 2659 ft 202 kts 270°
2026-05-01 12:17 23.59832 58.20002 2866 ft 227 kts 270°
2026-05-01 12:17 23.59716 58.18217 3291 ft 243 kts 269°
2026-05-01 12:17 23.59598 58.16345 3747 ft 258 kts 269°
2026-05-01 12:17 23.59471 58.14337 4237 ft 271 kts 269°
2026-05-01 12:18 23.59341 58.12284 5006 ft 271 kts 269°
2026-05-01 12:18 23.59215 58.10249 5737 ft 273 kts 268°
2026-05-01 12:18 23.59085 58.08193 6374 ft 277 kts 268°
2026-05-01 12:18 23.58955 58.06089 7051 ft 280 kts 267°
2026-05-01 12:19 23.58570 58.04052 7785 ft 282 kts 246°
2026-05-01 12:19 23.57429 58.02329 8591 ft 281 kts 230°
2026-05-01 12:19 23.56141 58.00727 9266 ft 283 kts 230°
2026-05-01 12:19 23.54845 57.99101 9962 ft 285 kts 230°
2026-05-01 12:20 23.53547 57.97471 10523 ft 293 kts 230°
2026-05-01 12:20 23.52172 57.95744 10836 ft 309 kts 230°
2026-05-01 12:20 23.50715 57.93914 11064 ft 328 kts 230°
2026-05-01 12:20 23.49187 57.91994 11255 ft 345 kts 230°
2026-05-01 12:21 23.47579 57.89975 11524 ft 359 kts 230°
2026-05-01 12:21 23.45933 57.87911 12028 ft 364 kts 230°
2026-05-01 12:21 23.44281 57.85839 12709 ft 364 kts 230°
2026-05-01 12:21 23.42619 57.83754 13268 ft 367 kts 230°
2026-05-01 12:22 23.40920 57.81622 13815 ft 371 kts 230°
2026-05-01 12:22 23.39243 57.79520 14456 ft 371 kts 230°
2026-05-01 12:22 23.37557 57.77409 15014 ft 373 kts 230°
2026-05-01 12:22 23.35852 57.75274 15532 ft 376 kts 230°
2026-05-01 12:23 23.34120 57.73107 16061 ft 378 kts 230°
2026-05-01 12:23 23.32395 57.70949 16603 ft 380 kts 230°
2026-05-01 12:23 23.30670 57.68792 17137 ft 381 kts 230°
2026-05-01 12:23 23.28929 57.66615 17629 ft 384 kts 229°
2026-05-01 12:24 23.27155 57.64401 18127 ft 386 kts 230°
2026-05-01 12:24 23.25408 57.62218 18672 ft 387 kts 230°
2026-05-01 12:24 23.23633 57.60004 19184 ft 388 kts 230°
2026-05-01 12:24 23.21870 57.57801 19649 ft 389 kts 230°
2026-05-01 12:25 23.20084 57.55576 20009 ft 393 kts 230°
2026-05-01 12:25 23.16464 57.51063 20962 ft 395 kts 230°
2026-05-01 12:25 23.14661 57.48818 21317 ft 398 kts 230°
2026-05-01 12:26 23.12828 57.46534 21694 ft 401 kts 230°
2026-05-01 12:26 23.09157 57.41967 22460 ft 404 kts 230°
2026-05-01 12:26 23.07301 57.39659 22816 ft 406 kts 230°
2026-05-01 12:27 23.05451 57.37364 23126 ft 409 kts 230°
2026-05-01 12:27 23.01684 57.32685 23712 ft 415 kts 230°
2026-05-01 12:28 22.98559 57.27468 24311 ft 416 kts 243°
2026-05-01 12:28 22.97226 57.24663 24600 ft 418 kts 243°
2026-05-01 12:28 22.94552 57.19051 25180 ft 422 kts 243°
2026-05-01 12:29 22.93197 57.16213 25431 ft 424 kts 243°
2026-05-01 12:29 22.91840 57.13368 25713 ft 426 kts 243°
2026-05-01 12:29 22.89111 57.07662 26202 ft 430 kts 243°
2026-05-01 12:30 22.86359 57.01909 26741 ft 433 kts 244°
2026-05-01 12:30 22.84956 56.98983 26991 ft 434 kts 244°
2026-05-01 12:30 22.83562 56.96072 27208 ft 436 kts 244°
2026-05-01 12:31 22.82169 56.93166 27454 ft 438 kts 244°
2026-05-01 12:31 22.80763 56.90236 27709 ft 439 kts 244°
2026-05-01 12:31 22.79364 56.87318 27912 ft 441 kts 244°
2026-05-01 12:31 22.77955 56.84384 28144 ft 441 kts 244°
2026-05-01 12:32 22.76534 56.81427 28342 ft 443 kts 244°
2026-05-01 12:32 22.73672 56.75471 28703 ft 447 kts 244°
2026-05-01 12:32 22.72242 56.72499 28888 ft 448 kts 244°
2026-05-01 12:33 22.70790 56.69484 29075 ft 450 kts 244°
2026-05-01 12:33 22.69335 56.66464 29241 ft 451 kts 244°
2026-05-01 12:33 22.67895 56.63475 29440 ft 451 kts 244°
2026-05-01 12:33 22.66453 56.60489 29565 ft 453 kts 244°
2026-05-01 12:34 22.64992 56.57459 29721 ft 454 kts 244°
2026-05-01 12:34 22.63521 56.54416 29869 ft 455 kts 244°
2026-05-01 12:34 22.62066 56.51405 30013 ft 456 kts 244°
2026-05-01 12:34 22.60585 56.48340 30132 ft 456 kts 244°
2026-05-01 12:35 22.59124 56.45320 30253 ft 457 kts 244°
2026-05-01 12:35 22.57656 56.42290 30369 ft 458 kts 244°
2026-05-01 12:35 22.56173 56.39228 30487 ft 458 kts 244°
2026-05-01 12:35 22.54690 56.36167 30604 ft 458 kts 244°
2026-05-01 12:36 22.53224 56.33138 30728 ft 458 kts 243°
2026-05-01 12:36 22.51739 56.30076 30860 ft 458 kts 243°
2026-05-01 12:36 22.50275 56.27054 30986 ft 458 kts 243°
2026-05-01 12:36 22.48789 56.23989 31123 ft 458 kts 243°
2026-05-01 12:37 22.47306 56.20935 31253 ft 458 kts 243°
2026-05-01 12:37 22.45836 56.17906 31381 ft 458 kts 243°
2026-05-01 12:37 22.44349 56.14847 31512 ft 458 kts 243°
2026-05-01 12:37 22.42881 56.11829 31640 ft 458 kts 243°
2026-05-01 12:38 22.41386 56.08755 31770 ft 458 kts 243°
2026-05-01 12:38 22.39912 56.05728 31896 ft 458 kts 243°
2026-05-01 12:38 22.38439 56.02705 32020 ft 458 kts 243°
2026-05-01 12:38 22.36938 55.99634 32150 ft 457 kts 243°
2026-05-01 12:39 22.35449 55.96601 32276 ft 457 kts 243°
2026-05-01 12:39 22.33960 55.93568 32400 ft 457 kts 243°
2026-05-01 12:39 22.32464 55.90522 32524 ft 457 kts 243°
2026-05-01 12:39 22.30992 55.87527 32651 ft 457 kts 243°
2026-05-01 12:40 22.29504 55.84503 32787 ft 456 kts 243°
2026-05-01 12:40 22.28014 55.81472 32922 ft 456 kts 243°
2026-05-01 12:40 22.26525 55.78450 33058 ft 455 kts 243°
2026-05-01 12:40 22.25036 55.75418 33192 ft 455 kts 243°
2026-05-01 12:41 22.23555 55.72400 33325 ft 454 kts 243°
2026-05-01 12:41 22.22093 55.69421 33456 ft 454 kts 243°
2026-05-01 12:41 22.20613 55.66409 33588 ft 454 kts 243°
2026-05-01 12:41 22.19131 55.63394 33721 ft 453 kts 243°
2026-05-01 12:42 22.17667 55.60417 33852 ft 453 kts 243°
2026-05-01 12:42 22.16379 55.57330 33954 ft 452 kts 253°
2026-05-01 12:42 22.15905 55.53989 34076 ft 452 kts 268°
2026-05-01 12:42 22.16155 55.50637 34240 ft 452 kts 274°
2026-05-01 12:43 22.16445 55.47269 34379 ft 452 kts 274°
2026-05-01 12:43 22.16731 55.43860 34507 ft 452 kts 274°
2026-05-01 12:43 22.17007 55.40507 34635 ft 451 kts 274°
2026-05-01 12:43 22.17284 55.37141 34763 ft 451 kts 273°
2026-05-01 12:44 22.17559 55.33784 34896 ft 451 kts 273°
2026-05-01 12:44 22.17833 55.30430 35041 ft 450 kts 273°
2026-05-01 12:44 22.18378 55.23730 35331 ft 449 kts 273°
2026-05-01 12:45 22.18919 55.17043 35618 ft 447 kts 273°
2026-05-01 12:45 22.19184 55.13752 35761 ft 447 kts 273°
2026-05-01 12:45 22.19453 55.10410 35904 ft 446 kts 273°
2026-05-01 12:46 22.19720 55.07080 36044 ft 446 kts 273°
2026-05-01 12:46 22.19985 55.03756 36188 ft 445 kts 273°
2026-05-01 12:46 22.20250 55.00436 36326 ft 445 kts 273°
2026-05-01 12:46 22.20513 54.97131 36466 ft 444 kts 273°
2026-05-01 12:47 22.20776 54.93822 36606 ft 444 kts 273°
2026-05-01 12:47 22.21038 54.90517 36742 ft 443 kts 273°
2026-05-01 12:47 22.21299 54.87212 36877 ft 443 kts 273°
2026-05-01 12:47 22.21559 54.83901 37010 ft 442 kts 273°
2026-05-01 12:48 22.21818 54.80609 37147 ft 442 kts 273°
2026-05-01 12:48 22.22076 54.77319 37280 ft 441 kts 273°
2026-05-01 12:48 22.22332 54.74034 37414 ft 440 kts 273°
2026-05-01 12:48 22.22588 54.70751 37552 ft 440 kts 273°
2026-05-01 12:49 22.22843 54.67480 37681 ft 439 kts 273°
2026-05-01 12:49 22.23097 54.64204 37812 ft 438 kts 273°
2026-05-01 12:49 22.23348 54.60944 37945 ft 437 kts 273°
2026-05-01 12:49 22.23600 54.57677 38077 ft 437 kts 273°
2026-05-01 12:50 22.23851 54.54422 38205 ft 436 kts 273°
2026-05-01 12:50 22.24100 54.51172 38336 ft 435 kts 273°
2026-05-01 12:50 22.24349 54.47924 38475 ft 435 kts 273°
2026-05-01 12:50 22.24593 54.44717 38611 ft 434 kts 273°
2026-05-01 12:51 22.24840 54.41483 38749 ft 433 kts 273°
2026-05-01 12:51 22.25085 54.38247 38890 ft 433 kts 273°
2026-05-01 12:51 22.25574 54.31784 39186 ft 432 kts 272°
2026-05-01 12:52 22.25815 54.28578 39347 ft 431 kts 272°
2026-05-01 12:52 22.26296 54.22173 39658 ft 429 kts 272°
2026-05-01 12:52 22.26535 54.18975 39807 ft 429 kts 272°
2026-05-01 12:53 22.27254 54.09300 39807 ft 434 kts 272°
2026-05-01 12:54 22.27734 54.02801 39810 ft 436 kts 272°
2026-05-01 12:54 22.28453 53.92992 39800 ft 438 kts 272°
2026-05-01 12:55 22.29168 53.83160 39794 ft 440 kts 272°
2026-05-01 12:56 22.29641 53.76597 39787 ft 440 kts 272°
2026-05-01 12:56 22.30111 53.70051 39784 ft 441 kts 272°
2026-05-01 12:57 22.30582 53.63453 39782 ft 441 kts 272°
2026-05-01 12:57 22.31282 53.53581 39780 ft 441 kts 272°
2026-05-01 12:58 22.31744 53.47012 39778 ft 441 kts 272°
2026-05-01 12:59 22.32436 53.37120 39777 ft 441 kts 272°
2026-05-01 12:59 22.33118 53.27263 39783 ft 441 kts 272°
2026-05-01 13:00 22.33798 53.17349 39785 ft 442 kts 272°
2026-05-01 13:01 22.34471 53.07461 39791 ft 442 kts 272°
2026-05-01 13:02 22.35140 52.97536 39797 ft 442 kts 271°
2026-05-01 13:07 22.39837 52.25088 39809 ft 441 kts 271°
2026-05-01 13:08 22.40249 52.18499 39805 ft 441 kts 271°
2026-05-01 13:08 22.40676 52.11900 39804 ft 441 kts 272°
2026-05-01 13:09 22.41223 52.05339 39803 ft 441 kts 272°
2026-05-01 13:09 22.41763 51.98746 39802 ft 441 kts 272°
2026-05-01 13:10 22.42301 51.92145 39798 ft 441 kts 272°
2026-05-01 13:10 22.42835 51.85568 39795 ft 441 kts 272°
2026-05-01 13:11 22.43363 51.79028 39793 ft 440 kts 272°
2026-05-01 13:11 22.43891 51.72446 39789 ft 440 kts 272°
2026-05-01 13:12 22.44417 51.65860 39797 ft 440 kts 272°
2026-05-01 13:12 22.44937 51.59317 39792 ft 440 kts 272°
2026-05-01 13:13 22.45456 51.52753 39799 ft 440 kts 272°
2026-05-01 13:13 22.45975 51.46153 39798 ft 440 kts 272°
2026-05-01 13:14 22.46489 51.39592 39804 ft 440 kts 272°
2026-05-01 13:14 22.47000 51.33024 39816 ft 440 kts 272°
2026-05-01 13:15 22.47510 51.26435 39813 ft 441 kts 272°
2026-05-01 13:15 22.48016 51.19861 39816 ft 441 kts 272°
2026-05-01 13:16 22.48523 51.13257 39813 ft 441 kts 272°
2026-05-01 13:16 22.49025 51.06665 39815 ft 441 kts 272°
2026-05-01 13:17 22.50018 50.93518 39818 ft 441 kts 272°
2026-05-01 13:18 22.50761 50.83608 39816 ft 441 kts 272°
2026-05-01 13:18 22.51249 50.77027 39814 ft 441 kts 272°
2026-05-01 13:19 22.51739 50.70410 39818 ft 441 kts 272°
2026-05-01 13:20 22.52465 50.60507 39827 ft 441 kts 272°
2026-05-01 13:20 22.52943 50.53948 39825 ft 440 kts 272°
2026-05-01 13:21 22.53660 50.44053 39829 ft 440 kts 272°
2026-05-01 13:21 22.54131 50.37494 39829 ft 440 kts 272°
2026-05-01 13:22 22.54601 50.30924 39849 ft 440 kts 271°
2026-05-01 13:22 22.55068 50.24336 39849 ft 440 kts 272°
2026-05-01 13:23 22.55534 50.17747 39847 ft 440 kts 271°
2026-05-01 13:23 22.55994 50.11195 39845 ft 440 kts 271°
2026-05-01 13:24 22.56457 50.04570 39844 ft 440 kts 271°
2026-05-01 13:25 22.57142 49.94686 39843 ft 440 kts 271°
2026-05-01 13:25 22.57594 49.88099 39843 ft 440 kts 271°
2026-05-01 13:26 22.58044 49.81528 39843 ft 440 kts 271°
2026-05-01 13:26 22.58491 49.74934 39843 ft 440 kts 271°
2026-05-01 13:27 22.58937 49.68349 39840 ft 439 kts 271°
2026-05-01 13:27 22.59595 49.58535 39837 ft 439 kts 271°
2026-05-01 13:28 22.60250 49.48671 39840 ft 438 kts 271°
2026-05-01 13:29 22.61112 49.35532 39841 ft 438 kts 271°
2026-05-01 13:31 22.62386 49.15841 39851 ft 439 kts 271°
2026-05-01 13:32 22.63428 48.99447 39846 ft 439 kts 271°
2026-05-01 13:33 22.64793 48.89723 39869 ft 447 kts 292°
2026-05-01 13:33 22.68093 48.83948 39834 ft 452 kts 297°
2026-05-01 13:34 22.74923 48.72529 39865 ft 452 kts 298°
2026-05-01 13:35 22.80020 48.64012 39874 ft 452 kts 297°
2026-05-01 13:36 22.85146 48.55434 39871 ft 452 kts 297°
2026-05-01 13:36 22.90253 48.46876 39871 ft 452 kts 297°
2026-05-01 13:37 22.93673 48.41133 39876 ft 452 kts 297°
2026-05-01 13:37 22.97075 48.35418 39884 ft 452 kts 297°
2026-05-01 13:38 23.02159 48.26864 39907 ft 452 kts 297°
2026-05-01 13:39 23.05579 48.21102 39902 ft 453 kts 297°
2026-05-01 13:39 23.08977 48.15369 39909 ft 453 kts 297°
2026-05-01 13:40 23.12390 48.09607 39908 ft 453 kts 297°
2026-05-01 13:40 23.15777 48.03880 39913 ft 452 kts 297°
2026-05-01 13:41 23.19161 47.98154 39921 ft 451 kts 296°
2026-05-01 13:41 23.22543 47.92424 39925 ft 451 kts 296°
2026-05-01 13:42 23.25927 47.86680 39244 ft 454 kts 296°
2026-05-01 13:42 23.27613 47.83822 37159 ft 454 kts 296°
2026-05-01 13:42 23.29275 47.80999 34847 ft 454 kts 296°
2026-05-01 13:42 23.30952 47.78146 32346 ft 455 kts 296°
2026-05-01 13:43 23.32626 47.75293 30218 ft 450 kts 297°
2026-05-01 13:43 23.34267 47.72501 28545 ft 437 kts 297°
2026-05-01 13:43 23.35875 47.69834 27442 ft 422 kts 305°
2026-05-01 13:43 23.38133 47.67772 27147 ft 419 kts 321°
2026-05-01 13:44 23.40526 47.66133 27194 ft 397 kts 321°
2026-05-01 13:44 23.42810 47.64554 27172 ft 379 kts 321°
2026-05-01 13:44 23.45011 47.63029 27133 ft 363 kts 320°
2026-05-01 13:44 23.47095 47.61583 27100 ft 347 kts 320°
2026-05-01 13:45 23.49095 47.60195 26701 ft 345 kts 320°
2026-05-01 13:45 23.51166 47.58747 25619 ft 363 kts 321°
2026-05-01 13:45 23.53312 47.57252 24436 ft 380 kts 323°
2026-05-01 13:45 23.55574 47.55682 23283 ft 394 kts 323°
2026-05-01 13:46 23.57900 47.54072 22335 ft 400 kts 324°
2026-05-01 13:46 23.60272 47.52427 21615 ft 408 kts 324°
2026-05-01 13:46 23.62706 47.50738 21532 ft 425 kts 324°
2026-05-01 13:46 23.65250 47.48970 21319 ft 442 kts 324°
2026-05-01 13:47 23.67849 47.47165 21068 ft 443 kts 324°
2026-05-01 13:47 23.70432 47.45371 20748 ft 434 kts 324°
2026-05-01 13:47 23.72974 47.43602 20486 ft 428 kts 324°
2026-05-01 13:47 23.75461 47.41868 20232 ft 426 kts 324°
2026-05-01 13:48 23.77950 47.40133 19979 ft 426 kts 324°
2026-05-01 13:48 23.80434 47.38404 19733 ft 423 kts 324°
2026-05-01 13:48 23.82947 47.36650 19474 ft 422 kts 324°
2026-05-01 13:48 23.85416 47.34927 19227 ft 420 kts 324°
2026-05-01 13:49 23.87849 47.33229 18990 ft 419 kts 324°
2026-05-01 13:49 23.90316 47.31507 18747 ft 417 kts 323°
2026-05-01 13:49 23.92776 47.29787 18506 ft 416 kts 324°
2026-05-01 13:49 23.95196 47.28095 18264 ft 415 kts 324°
2026-05-01 13:50 23.97633 47.26391 18021 ft 413 kts 324°
2026-05-01 13:50 24.00038 47.24710 17786 ft 412 kts 324°
2026-05-01 13:50 24.02427 47.23038 17661 ft 393 kts 324°
2026-05-01 13:50 24.04684 47.21460 17118 ft 380 kts 323°
2026-05-01 13:51 24.06879 47.19921 16182 ft 379 kts 323°
2026-05-01 13:51 24.09100 47.18363 15397 ft 372 kts 323°
2026-05-01 13:51 24.11247 47.16859 14604 ft 368 kts 323°
2026-05-01 13:51 24.13376 47.15364 13775 ft 365 kts 323°
2026-05-01 13:52 24.15493 47.13879 13006 ft 360 kts 323°
2026-05-01 13:52 24.17594 47.12403 12519 ft 359 kts 323°
2026-05-01 13:52 24.19714 47.10914 12641 ft 359 kts 323°
2026-05-01 13:52 24.21827 47.09429 12655 ft 360 kts 323°
2026-05-01 13:53 24.23944 47.07943 12534 ft 360 kts 323°
2026-05-01 13:53 24.28123 47.05003 12295 ft 358 kts 323°
2026-05-01 13:53 24.30228 47.03522 12176 ft 358 kts 323°
2026-05-01 13:54 24.32329 47.02043 12061 ft 358 kts 324°
2026-05-01 13:54 24.34420 47.00570 11948 ft 357 kts 324°
2026-05-01 13:54 24.36503 46.99103 11832 ft 357 kts 324°
2026-05-01 13:54 24.38597 46.97627 11714 ft 356 kts 324°
2026-05-01 13:55 24.40691 46.96151 11598 ft 356 kts 324°
2026-05-01 13:55 24.42763 46.94688 11483 ft 356 kts 324°
2026-05-01 13:55 24.44858 46.93211 11365 ft 356 kts 324°
2026-05-01 13:55 24.46945 46.91737 11246 ft 356 kts 324°
2026-05-01 13:56 24.49039 46.90259 11127 ft 356 kts 324°
2026-05-01 13:56 24.51141 46.88773 11007 ft 356 kts 324°
2026-05-01 13:56 24.53225 46.87297 10887 ft 355 kts 324°
2026-05-01 13:56 24.55263 46.85856 10758 ft 342 kts 324°
2026-05-01 13:57 24.57200 46.84488 10609 ft 322 kts 324°
2026-05-01 13:57 24.59041 46.83186 10446 ft 304 kts 324°
2026-05-01 13:57 24.60801 46.81938 10298 ft 297 kts 324°
2026-05-01 13:57 24.62528 46.80713 10176 ft 296 kts 324°
2026-05-01 13:58 24.64270 46.79481 10075 ft 293 kts 324°
2026-05-01 13:58 24.65936 46.78302 9875 ft 281 kts 324°
2026-05-01 13:58 24.67603 46.77116 9268 ft 286 kts 325°
2026-05-01 13:58 24.69280 46.75927 8736 ft 286 kts 326°
2026-05-01 13:59 24.70935 46.74755 8259 ft 285 kts 326°
2026-05-01 13:59 24.72613 46.73563 7787 ft 284 kts 326°
2026-05-01 13:59 24.74256 46.72398 7290 ft 285 kts 326°
2026-05-01 13:59 24.75925 46.71213 6830 ft 283 kts 327°
2026-05-01 14:00 24.77572 46.70044 6397 ft 281 kts 327°
2026-05-01 14:00 24.79220 46.68874 5887 ft 283 kts 327°
2026-05-01 14:00 24.80868 46.67703 5457 ft 281 kts 327°
2026-05-01 14:00 24.82498 46.66545 5096 ft 281 kts 327°
2026-05-01 14:01 24.84134 46.65382 5058 ft 279 kts 327°
2026-05-01 14:01 24.85761 46.64224 5056 ft 280 kts 327°
2026-05-01 14:01 24.87390 46.63066 5044 ft 279 kts 327°
2026-05-01 14:01 24.89019 46.61907 5046 ft 278 kts 327°
2026-05-01 14:02 24.90652 46.60744 5044 ft 278 kts 327°
2026-05-01 14:02 24.92279 46.59586 5046 ft 278 kts 327°
2026-05-01 14:02 24.93912 46.58422 5046 ft 280 kts 327°
2026-05-01 14:02 24.95559 46.57248 5051 ft 279 kts 327°
2026-05-01 14:03 24.97174 46.56088 5047 ft 279 kts 325°
2026-05-01 14:03 24.98894 46.55105 5038 ft 278 kts 347°
2026-05-01 14:03 25.00813 46.54691 5066 ft 278 kts 349°
2026-05-01 14:03 25.02707 46.54261 5046 ft 279 kts 349°
2026-05-01 14:04 25.04626 46.53824 5049 ft 278 kts 349°
2026-05-01 14:04 25.06509 46.53394 5047 ft 277 kts 349°
2026-05-01 14:04 25.08401 46.52961 5047 ft 276 kts 349°
2026-05-01 14:04 25.10312 46.52523 5050 ft 279 kts 349°
2026-05-01 14:05 25.12207 46.52090 5042 ft 279 kts 349°
2026-05-01 14:05 25.14098 46.51657 5044 ft 277 kts 349°
2026-05-01 14:05 25.15981 46.51225 5044 ft 276 kts 349°
2026-05-01 14:05 25.17910 46.50784 5090 ft 285 kts 349°
2026-05-01 14:06 25.19877 46.50394 5032 ft 286 kts 358°
2026-05-01 14:06 25.21833 46.50776 5039 ft 284 kts 26°
2026-05-01 14:06 25.23382 46.52048 5051 ft 278 kts 53°
2026-05-01 14:06 25.24576 46.53726 5047 ft 279 kts 45°
2026-05-01 14:07 25.26221 46.54892 5055 ft 281 kts 35°
2026-05-01 14:07 25.27570 46.56377 5051 ft 275 kts 62°
2026-05-01 14:07 25.28139 46.58359 5064 ft 270 kts 89°
2026-05-01 14:08 25.26664 46.61932 5060 ft 267 kts 143°
2026-05-01 14:08 25.24979 46.62741 5061 ft 268 kts 167°
2026-05-01 14:08 25.23125 46.63128 5063 ft 268 kts 172°
2026-05-01 14:08 25.21286 46.62985 5057 ft 269 kts 191°
2026-05-01 14:09 25.19459 46.62464 5062 ft 271 kts 194°
2026-05-01 14:09 25.17649 46.61848 5051 ft 270 kts 196°
2026-05-01 14:09 25.15854 46.61206 5051 ft 271 kts 197°
2026-05-01 14:09 25.14061 46.60552 5050 ft 270 kts 196°
2026-05-01 14:10 25.12291 46.59906 4985 ft 259 kts 196°
2026-05-01 14:10 25.10635 46.59528 4986 ft 234 kts 175°
2026-05-01 14:10 25.09104 46.59851 4649 ft 212 kts 160°
2026-05-01 14:10 25.07828 46.60529 4094 ft 194 kts 143°
2026-05-01 14:11 25.06806 46.61416 3837 ft 184 kts 142°
2026-05-01 14:11 25.04833 46.62626 3644 ft 158 kts 149°
2026-05-01 14:11 25.03937 46.63200 3438 ft 144 kts 150°
2026-05-01 14:12 25.03099 46.63723 3264 ft 135 kts 150°
2026-05-01 14:12 25.02286 46.64233 3135 ft 131 kts 150°
2026-05-01 14:12 25.01473 46.64735 2975 ft 134 kts 150°
2026-05-01 14:12 25.00670 46.65248 2771 ft 134 kts 149°
2026-05-01 14:13 24.99873 46.65760 2631 ft 133 kts 150°
2026-05-01 14:13 24.99050 46.66261 2466 ft 134 kts 149°
2026-05-01 14:13 24.98242 46.66767 2323 ft 133 kts 151°
2026-05-01 14:13 24.97434 46.67278 2159 ft 133 kts 151°
2026-05-01 14:14 24.96638 46.67783 2057 ft 120 kts 151°
2026-05-01 14:14 24.96083 46.68130 2056 ft 60 kts 150°
2026-05-01 14:14 24.95759 46.68335 2056 ft 39 kts 149°
2026-05-01 14:14 24.95584 46.68478 2056 ft 23 kts 141°
2026-05-01 14:15 24.95491 46.68618 2056 ft 22 kts 103°
2026-05-01 14:15 24.95511 46.68793 2056 ft 22 kts 84°
2026-05-01 14:15 24.95418 46.68895 2056 ft 19 kts 149°
2026-05-01 14:15 24.95293 46.68971 2056 ft 23 kts 150°
2026-05-01 14:16 24.95137 46.69069 2056 ft 28 kts 150°
2026-05-01 14:16 24.94946 46.69191 2056 ft 33 kts 150°
2026-05-01 14:16 24.94728 46.69327 2056 ft 37 kts 151°
2026-05-01 14:16 24.94546 46.69443 2056 ft 22 kts 144°
2026-05-01 14:17 24.94548 46.69586 2055 ft 16 kts 61°
2026-05-01 14:17 24.94603 46.69692 2055 ft 16 kts 60°
2026-05-01 14:17 24.94661 46.69801 2055 ft 16 kts 60°
2026-05-01 14:17 24.94725 46.69924 2055 ft 24 kts 60°
2026-05-01 14:18 24.94826 46.70122 2055 ft 35 kts 61°
2026-05-01 14:18 24.94964 46.70379 2055 ft 41 kts 59°
2026-05-01 14:18 24.94995 46.70437 2055 ft 0 kts 62°
2026-05-01 14:19 24.95069 46.70580 2055 ft 29 kts 59°
2026-05-01 14:19 24.95163 46.70758 2055 ft 22 kts 60°
2026-05-01 14:19 24.95201 46.70830 2055 ft 9 kts 60°
2026-05-01 14:19 24.95235 46.70893 2055 ft 9 kts 60°
2026-05-01 14:20 24.95265 46.70952 2055 ft 5 kts 60°
2026-05-01 14:20 24.95277 46.70974 2055 ft 0 kts 60°
2026-05-01 14:22 24.95277 46.70975 2055 ft 0 kts 60°
2026-05-01 14:22 24.95307 46.71033 2055 ft 17 kts 60°
2026-05-01 14:22 24.95363 46.71164 2055 ft 13 kts 95°
2026-05-01 14:22 24.95298 46.71229 2055 ft 14 kts 151°
2026-05-01 14:23 24.95175 46.71306 2055 ft 23 kts 150°
2026-05-01 14:23 24.95026 46.71400 2055 ft 21 kts 150°
2026-05-01 14:23 24.94904 46.71478 2055 ft 21 kts 149°
2026-05-01 14:23 24.94788 46.71550 2055 ft 15 kts 158°
2026-05-01 14:24 24.94717 46.71495 2055 ft 15 kts 237°
2026-05-01 14:24 24.94661 46.71388 2055 ft 17 kts 240°
2026-05-01 14:24 24.94611 46.71292 2055 ft 8 kts 239°
2026-05-01 14:24 24.94557 46.71272 2055 ft 7 kts 161°
2026-05-01 14:25 24.94527 46.71251 2055 ft 6 kts 242°
2026-05-01 14:25 24.94509 46.71216 2055 ft 5 kts 241°
2026-05-01 14:25 24.94500 46.71198 2055 ft 2 kts 240°
2026-05-01 14:25 24.94493 46.71184 2055 ft 2 kts 240°
2026-05-01 14:26 24.94491 46.71179 2055 ft 0 kts 240°